Location: Bushey
(51.6333°N, 0.3667°W)
Time: 17:42:21
(UTC+00:00)

Cosmos 1937 Rocket - Pass Details

Date: 03 March 2021
Orbit: 747 x 780 km, 74.0° (Epoch: 16 April)

Event Time Altitude Azimuth Distance (km) Brightness Sun altitude
Rises 21:00:45 0° 335° (NNW) 3,224 7.5 -30.0°
Reaches altitude 10° 21:03:09 10° 338° (NNW) 2,290 6.6 -30.3°
Enters shadow 21:06:38 43° 349° (NNW) 1,057 4.4 -30.8°
